Regional Weather Roundup
Issued by NWS

Home | Current Version | Previous Version | Graphics & Text | Print | Product List | Glossary On
Versions: 1 2 3 4 5 6 7 8 9 10 11 12 13 14 15 16 17 18 19 20 21 22 23 24 25 26 27 28 29 30 31 32 33 34 35 36 37 38 39 40 41 42 43 44 45 46 47 48 49 50
000
ASUS43 KOAX 251502
RWRNE

WEATHER ROUNDUP FOR NEBRASKA
NATIONAL WEATHER SERVICE OMAHA NE
900 AM CST SUN JAN 25 2015

NOTES: SATELLITE DATA IS BEING USED TO AUGMENT CLOUD COVER ABOVE
       12000 FEET.
       "FAIR" INDICATES FEW OR NO CLOUDS BELOW 12,000 FEET WITH NO
       SIGNIFICANT WEATHER AND/OR OBSTRUCTIONS TO VISIBILITY.

  * THESE STATIONS DO NOT REPORT WEATHER SUCH AS RAIN...SNOW OR FOG.

NEZ001>004-019>022-054>056-251600-
NEBRASKA PANHANDLE

CITY           SKY/WX    TMP DP  RH WIND       PRES   REMARKS
SCOTTSBLUFF    CLOUDY    34  28  79 NW8       30.13R WCI  27
ALLIANCE       CLEAR     33  27  78 NW20      30.07R WCI  21
CHADRON        PTCLDY    38  28  67 W16G24    30.08S WCI  29
SIDNEY         CLEAR     34  27  75 NW13      30.12R WCI  25
$$

NEZ057>060-069>072-079>082-251600-
SOUTHWEST NEBRASKA

CITY           SKY/WX    TMP DP  RH WIND       PRES   REMARKS
NORTH PLATTE   CLEAR     32  25  75 NW13      30.06R WCI  22
IMPERIAL       CLEAR     34  24  67 NW12      30.09R WCI  25
MCCOOK         CLEAR     38  25  59 NW16      30.05R WCI  29
$$

NEZ005>010-023>029-035>040-094-251600-
NORTH CENTRAL NEBRASKA

CITY           SKY/WX    TMP DP  RH WIND       PRES   REMARKS
VALENTINE      CLEAR     33  27  78 NW10      30.03R WCI  25
AINSWORTH      CLOUDY    35  29  80 NW16G22   30.01R WCI  25
BROKEN BOW     MOCLDY    38  29  70 N24G33    29.99R WCI  27
ORD            CLOUDY    38  30  73 N22G28    29.97R WCI  27
$$

NEZ041-046>049-061>064-073>077-083>087-251600-
SOUTH CENTRAL NEBRASKA

CITY           SKY/WX    TMP DP  RH WIND       PRES   REMARKS
GRAND ISLAND   CLOUDY    39  31  72 N24G31    29.96R WCI  28
AURORA         CLOUDY    37  33  86 N23G29    29.94R WCI  26
HASTINGS       CLOUDY    39  29  67 NW20      29.95R WCI  29
KEARNEY *      CLOUDY    37  27  65 NW17G24   29.98R WCI  28
$$

NEZ011>018-030>034-042>045-251600-
NORTHEAST NEBRASKA

CITY           SKY/WX    TMP DP  RH WIND       PRES   REMARKS
NORFOLK        CLOUDY    33  31  92 N20       29.93R WCI  21
COLUMBUS *     CLOUDY    36  27  69 N17G23    29.94R WCI  25
TEKAMAH        CLOUDY    36  33  89 N22G30    29.90R WCI  25
$$

NEZ050>053-065>068-078-088>093-251600-
SOUTHEAST NEBRASKA

CITY           SKY/WX    TMP DP  RH WIND       PRES   REMARKS
LINCOLN        CLOUDY    37  30  75 N25G32    29.89R WCI  25
OMAHA EPPLEY   CLOUDY    36  33  89 N26G33    29.85R WCI  24
FALLS CITY     LGT RAIN  36  31  82 NW21G31   29.80R WCI  25
$$

NEZ044-045-051>053-067-251600-
OMAHA AREA

CITY           SKY/WX    TMP DP  RH WIND       PRES   REMARKS
OMAHA EPPLEY   CLOUDY    36  33  89 N26G33    29.85R WCI  24
OFFUTT AFB     CLOUDY    37  32  85 N23G29    29.85R WCI  25
$$


USA.gov is the U.S. government's official web portal to all federal, state and local government web resources and services.